Date String (YYYY-MM-DD hh:mm:ss) UTC,Instrument flags,absolute air pressure of the measurement (hPa),sample flow rate (lpm),inlet stack bypass flow (lpm),air temperature of the measurement (°C),ambient temperature measured by the external sensor (°C),aerosol sample conditioner tube jacket temperature (°C),OPC LED temperature (°C),internal box temperature (°C),relative humidity of the measurement (%),span deviation,mass concentration of particles derived from Lorenz-Mie calculation of OPC scattering (μg/m³),mass concentration of particles derived from Lorenz-Mie calculation of OPC scattering (μg/m³),mass concentration of particles derived from Lorenz-Mie calculation of OPC scattering (μg/m³)
DateTimeUTC,F1_M11,P_M11,Q1_M11,Q2_M11,T1_M11,T2_M11,T3_M11,T4_M11,T5_M11,U1_M11,ZSPAN_M11,X0_M11,X2_M11,X1_M11
2024-04-15 12:00:00,SystemResetWarning,0819.0,5.00,000.00,026.0,025.1,000.0,034.5,027.8,007.8,0000.0,0009.01,0002.88,0001.89
2024-04-15 12:01:00,SystemResetWarning,0819.0,5.01,000.00,025.9,025.1,000.0,034.5,027.8,007.8,0000.0,0009.20,0002.89,0001.91
2024-04-15 12:02:00,SystemResetWarning,0819.0,5.01,000.00,025.9,025.1,000.0,034.5,027.8,007.8,0000.0,0009.70,0002.88,0001.93
2024-04-15 12:03:00,SystemResetWarning,0818.9,5.01,000.00,025.9,025.1,000.0,034.5,027.8,007.8,0000.0,0009.60,0002.90,0001.94
2024-04-15 12:04:00,SystemResetWarning,0819.0,4.99,000.00,025.9,025.1,000.0,034.5,027.7,007.9,0000.0,0008.20,0002.91,0001.95
2024-04-15 12:05:00,SystemResetWarning,0819.0,5.00,000.00,025.9,025.1,000.0,034.5,027.8,008.0,0000.0,0008.70,0002.98,0001.98
2024-04-15 12:06:00,SystemResetWarning,0819.0,5.00,000.00,025.9,025.1,000.0,034.5,027.8,008.0,0000.0,0008.55,0003.07,0002.00
2024-04-15 12:07:00,SystemResetWarning,0819.0,5.00,000.00,025.9,025.1,000.0,034.5,027.7,008.0,0000.0,0008.68,0003.12,0002.01
2024-04-15 12:08:00,SystemResetWarning,0819.0,5.00,000.00,025.9,025.1,000.0,034.5,027.7,008.0,0000.0,0008.73,0003.12,0002.01
2024-04-15 12:09:00,SystemResetWarning,0819.0,5.00,000.00,025.9,025.1,000.0,034.4,027.8,007.9,0000.0,0009.15,0003.17,0002.03
2024-04-15 12:10:00,SystemResetWarning,0819.0,5.00,000.00,025.9,025.1,000.0,034.4,027.7,007.9,0000.0,0009.28,0003.21,0002.03
2024-04-15 12:11:00,SystemResetWarning,0819.0,5.00,000.00,025.9,025.1,000.0,034.4,027.7,007.9,0000.0,0009.45,0003.24,0002.04
2024-04-15 12:12:00,SystemResetWarning,0819.0,5.01,000.00,025.9,025.1,000.0,034.4,027.7,007.9,0000.0,0009.41,0003.25,0002.05
2024-04-15 12:13:00,SystemResetWarning,0819.0,5.00,000.00,025.9,025.1,000.0,034.4,027.7,007.9,0000.0,0008.98,0003.28,0002.05
2024-04-15 12:14:00,SystemResetWarning,0819.0,5.00,000.00,025.9,025.1,000.0,034.4,027.7,008.0,0000.0,0008.46,0003.28,0002.06
2024-04-15 12:15:00,SystemResetWarning,0819.0,4.99,000.00,025.9,025.1,000.0,034.4,027.7,008.1,0000.0,0008.47,0003.31,0002.08
2024-04-15 12:16:00,SystemResetWarning,0819.0,4.99,000.00,025.9,025.1,000.0,034.4,027.7,008.1,0000.0,0008.02,0003.30,0002.08
2024-04-15 12:17:00,SystemResetWarning,0819.1,5.01,000.00,025.9,025.1,000.0,034.4,027.7,008.7,0000.0,0007.94,0003.26,0002.07
2024-04-15 12:18:00,SystemResetWarning,0819.2,5.01,000.00,025.9,025.1,000.0,034.4,027.7,008.8,0000.0,0007.73,0003.24,0002.08
2024-04-15 12:19:00,SystemResetWarning,0819.1,4.99,000.00,025.8,025.0,000.0,034.4,027.7,009.0,0000.0,0007.92,0003.25,0002.09
2024-04-15 12:20:00,SystemResetWarning,0819.0,4.99,000.00,025.8,025.0,000.0,034.4,027.7,009.1,0000.0,0007.17,0003.25,0002.09
2024-04-15 12:21:00,SystemResetWarning,0819.0,5.00,000.00,025.8,025.0,000.0,034.4,027.6,009.1,0000.0,0007.13,0003.26,0002.13
2024-04-15 12:22:00,SystemResetWarning,0819.0,5.00,000.00,025.8,025.0,000.0,034.4,027.6,009.0,0000.0,0007.40,0003.29,0002.15
2024-04-15 12:23:00,SystemResetWarning,0818.9,5.00,000.00,025.8,025.0,000.0,034.4,027.6,008.8,0000.0,0008.65,0003.28,0002.17
2024-04-15 12:24:00,SystemResetWarning,0819.0,5.00,000.00,025.8,025.0,000.0,034.4,027.6,008.6,0000.0,0009.36,0003.30,0002.18
2024-04-15 12:25:00,SystemResetWarning,0819.0,5.01,000.00,025.8,025.0,000.0,034.4,027.6,008.5,0000.0,0009.45,0003.35,0002.20
2024-04-15 12:26:00,SystemResetWarning,0819.0,5.00,000.00,025.8,024.9,000.0,034.4,027.6,008.5,0000.0,0009.68,0003.34,0002.20
2024-04-15 12:27:00,SystemResetWarning,0819.1,4.99,000.00,025.8,024.9,000.0,034.4,027.6,008.7,0000.0,0009.86,0003.36,0002.19
2024-04-15 12:28:00,SystemResetWarning,0819.1,4.98,000.00,025.8,024.9,000.0,034.3,027.6,009.0,0000.0,0010.12,0003.42,0002.20
2024-04-15 12:29:00,SystemResetWarning,0819.0,5.01,000.00,025.8,024.9,000.0,034.3,027.6,009.1,0000.0,0010.15,0003.41,0002.21
2024-04-15 12:30:00,SystemResetWarning,0819.0,5.01,000.00,025.7,024.8,000.0,034.3,027.6,009.0,0000.0,0010.08,0003.43,0002.23
2024-04-15 12:31:00,SystemResetWarning,0819.0,5.01,000.00,025.7,024.8,000.0,034.3,027.5,009.1,0000.0,0010.02,0003.44,0002.23
2024-04-15 12:32:00,SystemResetWarning,0818.9,5.00,000.00,025.7,024.8,000.0,034.3,027.5,009.2,0000.0,0010.10,0003.42,0002.23
2024-04-15 12:33:00,SystemResetWarning,0819.0,5.00,000.00,025.7,024.8,000.0,034.3,027.6,009.0,0000.0,0010.33,0003.44,0002.23
2024-04-15 12:34:00,SystemResetWarning,0819.0,4.99,000.00,025.7,024.9,000.0,034.3,027.6,008.9,0000.0,0009.31,0003.47,0002.23
2024-04-15 12:35:00,SystemResetWarning,0819.0,5.00,000.00,025.7,024.9,000.0,034.3,027.5,008.8,0000.0,0008.93,0003.48,0002.22
2024-04-15 12:36:00,SystemResetWarning,0819.0,5.00,000.00,025.7,024.8,000.0,034.3,027.5,008.6,0000.0,0008.96,0003.45,0002.21
2024-04-15 12:37:00,SystemResetWarning,0819.0,4.99,000.00,025.7,024.8,000.0,034.3,027.5,008.4,0000.0,0008.74,0003.42,0002.22
2024-04-15 12:38:00,SystemResetWarning,0819.0,5.00,000.00,025.7,024.8,000.0,034.3,027.5,008.4,0000.0,0008.54,0003.38,0002.22
2024-04-15 12:39:00,SystemResetWarning,0819.0,5.00,000.00,025.7,024.8,000.0,034.3,027.5,008.1,0000.0,0008.31,0003.33,0002.22
2024-04-15 12:40:00,SystemResetWarning,0819.0,5.00,000.00,025.7,024.7,000.0,034.2,027.5,008.0,0000.0,0008.34,0003.32,0002.19
2024-04-15 12:41:00,SystemResetWarning,0819.0,5.00,000.00,025.6,024.7,000.0,034.2,027.5,008.2,0000.0,0008.27,0003.31,0002.18
2024-04-15 12:42:00,SystemResetWarning,0819.0,5.00,000.00,025.6,024.7,000.0,034.2,027.4,008.0,0000.0,0008.33,0003.27,0002.16
2024-04-15 12:43:00,SystemResetWarning,0819.0,5.00,000.00,025.6,024.7,000.0,034.2,027.4,007.9,0000.0,0008.61,0003.27,0002.15
2024-04-15 12:44:00,SystemResetWarning,0819.1,5.01,000.00,025.6,024.7,000.0,034.2,027.4,008.0,0000.0,0008.21,0003.21,0002.12
2024-04-15 12:45:00,SystemResetWarning,0819.0,5.00,000.00,025.6,024.7,000.0,034.2,027.4,007.9,0000.0,0008.07,0003.14,0002.10
2024-04-15 12:46:00,SystemResetWarning,0819.0,4.98,000.00,025.6,024.7,000.0,034.2,027.4,007.7,0000.0,0007.51,0003.11,0002.08
2024-04-15 12:47:00,SystemResetWarning,0819.0,5.00,000.00,025.6,024.7,000.0,034.2,027.4,007.6,0000.0,0007.58,0003.13,0002.06
2024-04-15 12:48:00,SystemResetWarning,0819.0,5.01,000.00,025.6,024.7,000.0,034.2,027.4,007.5,0000.0,0007.90,0003.15,0002.02
2024-04-15 12:49:00,SystemResetWarning,0819.1,5.00,000.00,025.6,024.7,000.0,034.2,027.4,007.5,0000.0,0007.86,0003.17,0002.00
2024-04-15 12:50:00,SystemResetWarning,0819.0,4.99,000.00,025.6,024.7,000.0,034.2,027.4,007.6,0000.0,0007.84,0003.19,0001.99
2024-04-15 12:51:00,SystemResetWarning,0819.1,4.99,000.00,025.6,024.7,000.0,034.1,027.4,007.6,0000.0,0008.17,0003.18,0001.98
2024-04-15 12:52:00,SystemResetWarning,0819.1,5.00,000.00,025.6,024.7,000.0,034.1,027.4,007.5,0000.0,0008.42,0003.12,0001.95
2024-04-15 12:53:00,SystemResetWarning,0819.0,5.00,000.00,025.6,024.7,000.0,034.1,027.4,007.5,0000.0,0008.22,0003.09,0001.93
2024-04-15 12:54:00,SystemResetWarning,0819.1,5.00,000.00,025.6,024.7,000.0,034.1,027.4,007.6,0000.0,0008.72,0003.05,0001.90
2024-04-15 12:55:00,SystemResetWarning,0819.0,5.00,000.00,025.6,024.8,000.0,034.1,027.4,007.6,0000.0,0008.83,0003.02,0001.88
2024-04-15 12:56:00,SystemResetWarning,0819.0,5.01,000.00,025.6,024.8,000.0,034.1,027.4,007.6,0000.0,0009.36,0003.06,0001.87
2024-04-15 12:57:00,SystemResetWarning,0819.1,5.00,000.00,025.6,024.8,000.0,034.1,027.4,007.6,0000.0,0009.66,0003.00,0001.85
2024-04-15 12:58:00,SystemResetWarning,0819.0,4.99,000.00,025.5,024.8,000.0,034.1,027.4,007.6,0000.0,0009.35,0002.89,0001.82
2024-04-15 12:59:00,SystemResetWarning,0819.0,4.99,000.00,025.5,024.8,000.0,034.1,027.4,007.6,0000.0,0009.07,0002.80,0001.82
